Weather History for Norwood, MA

Change the Weather History Date:

Thursday, October 4, 2012

  Actual Average Record
Temperature  
Mean Temperature 62 °F -  
Max Temperature 64 °F 64 °F 86 °F (2007)
Min Temperature 60 °F 39 °F 30 °F (1998)
Degree Days  
Heating Degree Days 3    
Growing Degree Days 12 (Base 50)    
Moisture  
Dew Point 60 °F    
Average Humidity 93    
Maximum Humidity 100    
Minimum Humidity 87    
Precipitation  
Precipitation 0.03 in - - ()
Sea Level Pressure  
Sea Level Pressure 30.11 in    
Wind  
Wind Speed 2 mph (NNE)    
Max Wind Speed 5 mph    
Max Gust Speed -    
Visibility 3 miles    
Events Fog , Rain    
Averages and records for this station are not official NWS values.
T = Trace of Precipitation, MM = Missing Value Source: NWS Daily Summary

Daily Weather History Graph

Daily Weather History Graph

Search for Another Location

Airport:

Trip Planner

Search our weather history database for the weather conditions in past years. The results will help you decide how hot, cold, wet, or windy it might be!

Date:

Astronomy

Oct. 04, 2012 Rise Set
Actual Time 6:45 AM EDT 6:20 PM EDT
Civil Twilight 6:17 AM EDT 6:48 PM EDT
Nautical Twilight 5:45 AM EDT 7:20 PM EDT
Astronomical Twilight 5:12 AM EDT 7:53 PM EDT
Moon 8:48 PM EDT (10/4) 11:04 AM EDT (10/4)
Length of Visible Light 12h 30m
Length of Day
11h 34m
Waning Gibbous, 82% of the Moon is Illuminated
Oct 4
Waning Gibbous
Oct 8
Last Quarter
Oct 15
New
Oct 21
First Quarter
Oct 29
Full

Hourly Weather History & Observations

Time (EDT) Temp. Dew Point Humidity Pressure Visibility Wind Dir Wind Speed Gust Speed Precip Events Conditions
12:45 AM 62.6 °F 60.8 °F 94% 30.15 in 3.0 mi NE 3.5 mph - N/A   Overcast
12:53 AM 62.1 °F 60.1 °F 93% 30.14 in 3.0 mi Calm Calm - N/A   Overcast
1:01 AM 62.6 °F 60.8 °F 94% 30.14 in 2.5 mi NE 3.5 mph - N/A   Overcast
1:43 AM 62.6 °F 60.8 °F 94% 30.15 in 4.0 mi Calm Calm - N/A   Overcast
1:53 AM 62.1 °F 60.1 °F 93% 30.15 in 4.0 mi Calm Calm - N/A   Overcast
2:53 AM 62.1 °F 60.1 °F 93% 30.13 in 3.0 mi NNE 3.5 mph - N/A   Overcast
3:53 AM 61.0 °F 59.0 °F 93% 30.13 in 5.0 mi NNE 3.5 mph - N/A   Overcast
4:53 AM 61.0 °F 59.0 °F 93% 30.14 in 3.0 mi NNW 4.6 mph - N/A   Overcast
5:53 AM 61.0 °F 59.0 °F 93% 30.14 in 3.0 mi Calm Calm - N/A   Overcast
6:17 AM 60.8 °F 59.0 °F 94% 30.14 in 2.0 mi North 4.6 mph - N/A   Overcast
6:53 AM 60.1 °F 59.0 °F 96% 30.15 in 0.8 mi North 3.5 mph - N/A   Overcast
7:00 AM 60.8 °F 59.0 °F 94% 30.15 in 2.0 mi North 3.5 mph - N/A   Overcast
7:04 AM 60.8 °F 59.0 °F 94% 30.15 in 0.8 mi North 4.6 mph - N/A   Overcast
7:53 AM 61.0 °F 59.0 °F 93% 30.15 in 0.8 mi North 3.5 mph - N/A   Overcast
8:00 AM 60.8 °F 59.0 °F 94% 30.15 in 1.0 mi Calm Calm - N/A   Overcast
8:53 AM 61.0 °F 59.0 °F 93% 30.14 in 1.0 mi NNE 4.6 mph - N/A   Overcast
8:55 AM 60.8 °F 59.0 °F 94% 30.15 in 3.0 mi NNE 4.6 mph - N/A   Overcast
9:03 AM 60.8 °F 59.0 °F 94% 30.15 in 1.5 mi NNE 4.6 mph - N/A   Overcast
9:24 AM 60.8 °F 59.0 °F 94% 30.15 in 2.5 mi NNE 3.5 mph - N/A   Overcast
9:53 AM 62.1 °F 60.1 °F 93% 30.16 in 2.5 mi Calm Calm - N/A   Overcast
10:16 AM 62.6 °F 60.8 °F 94% 30.15 in 1.8 mi North 3.5 mph - N/A   Overcast
10:53 AM 62.1 °F 60.1 °F 93% 30.14 in 1.5 mi North 3.5 mph - N/A   Overcast
11:12 AM 62.6 °F 60.8 °F 94% 30.14 in 2.0 mi Calm Calm - N/A   Overcast
11:27 AM 62.6 °F 60.8 °F 94% 30.14 in 1.8 mi NW 4.6 mph - N/A   Overcast
11:37 AM 62.6 °F 60.8 °F 94% 30.14 in 2.0 mi Calm Calm - N/A   Overcast
11:53 AM 64.0 °F 61.0 °F 90% 30.14 in 4.0 mi North 3.5 mph - N/A   Overcast
12:53 PM 63.0 °F 60.1 °F 90% 30.12 in 4.0 mi NNE 4.6 mph - N/A   Overcast
1:45 PM 64.4 °F 60.8 °F 88% 30.11 in 5.0 mi NW 4.6 mph - N/A   Overcast
1:53 PM 64.0 °F 60.1 °F 87% 30.09 in 6.0 mi North 4.6 mph - N/A   Overcast
2:53 PM 64.0 °F 60.1 °F 87% 30.07 in 8.0 mi NE 3.5 mph - 0.00 in Rain Light Rain
3:53 PM 64.0 °F 61.0 °F 90% 30.05 in 6.0 mi ENE 4.6 mph - 0.01 in   Overcast
4:02 PM 64.4 °F 60.8 °F 88% 30.05 in 2.0 mi ENE 3.5 mph - N/A   Overcast
4:53 PM 63.0 °F 60.1 °F 90% 30.06 in 2.0 mi East 3.5 mph - N/A   Overcast
6:24 PM 62.6 °F 59.0 °F 88% 30.07 in 1.0 mi ENE 4.6 mph - N/A   Overcast
6:38 PM 60.8 °F 59.0 °F 94% 30.06 in 0.8 mi ENE 4.6 mph - N/A   Overcast
6:53 PM 62.1 °F 59.0 °F 90% 30.06 in 1.5 mi Calm Calm - N/A   Overcast
7:00 PM 62.6 °F 59.0 °F 88% 30.06 in 2.0 mi Calm Calm - N/A   Overcast
7:53 PM 61.0 °F 59.0 °F 93% 30.05 in 2.0 mi Calm Calm - 0.00 in   Overcast
8:09 PM 60.8 °F 59.0 °F 94% 30.05 in 1.8 mi Calm Calm - N/A   Overcast
8:29 PM 60.8 °F 59.0 °F 94% 30.05 in 2.0 mi Calm Calm - 0.01 in Rain Light Rain
9:40 PM 60.8 °F 59.0 °F 94% 30.04 in 3.0 mi Calm Calm - 0.01 in Rain Light Rain
9:53 PM 61.0 °F 59.0 °F 93% 30.04 in 3.0 mi Calm Calm - 0.02 in Rain Light Rain
10:32 PM 60.8 °F 59.0 °F 94% 30.03 in 2.5 mi Calm Calm - 0.00 in   Overcast
10:53 PM 61.0 °F 59.0 °F 93% 30.04 in 3.0 mi Calm Calm - 0.00 in   Overcast
10:59 PM 60.8 °F 59.0 °F 94% 30.04 in 1.8 mi Calm Calm - N/A   Overcast
11:30 PM 60.8 °F 60.8 °F 100% 30.04 in 0.5 mi Calm Calm - N/A Fog Fog
11:53 PM 61.0 °F 60.1 °F 97% 30.04 in 0.5 mi Calm Calm - N/A Fog Fog